Location: Unspecified
(0.0000°N, 0.0000°E)
Time: 09:51:23
(UTC+00:00)

deb Explorer IX - Pass Details

Date: 14 December 2018
Orbit: 536 x 1116 km, 38.8° (Epoch: 22 March)

Event Time Altitude Azimuth Distance (km) Brightness Sun altitude
Rises 12:49:13 0° 197° (SSW) 3,656 ? 63.3°
Reaches altitude 10° 12:54:19 10° 164° (SSE) 2,543 ? 62.6°
Maximum altitude 12:56:01 11° 147° (SSE) 2,400 ? 62.4°
Drops below altitude 10° 12:57:39 10° 131° (SE) 2,422 ? 62.2°
Sets 13:02:04 0° 96° (E) 3,180 ? 61.6°
